User: anonymous   Login
Location: The Saddle
(36.8333°N, 80.3417°W)
Time: 03:20:04
(UTC-05:00)
Language:

ITAMSAT 1 - Orbit

View from above orbital plane
View from above orbital plane
View from above satellite
View from above satellite

Ground track
Ground track

The orbit data is extracted from the following two-line orbital elements,

1 22826U 93061D   24063.64462414  .00000166  00000-0  80662-4 0  9994
2 22826  98.7989 115.1127 0009190  19.8507 340.3031 14.30810024587804
Epoch (UTC): 03 March 2024 15:28:15
Eccentricity: 0.0009190
inclination: 98.7989°
perigee height: 782 km
apogee height: 795 km
right ascension of ascending node: 115.1127°
argument of perigee: 19.8507°
revolutions per day: 14.30810024
mean anomaly at epoch: 340.3031°
orbit number at epoch: 58780

The dashed part of the orbit path shows where the satellite is in the earth's shadow,  

DLR